Zurück zum Katalog

COSMOS 970 DEB

AktivLEO
NORAD 64987·DEBRIS·🇷🇺 Russia

Gestartet Dec 21, 1977 von Baikonur Cosmodrome

Loading…

Nächste Überflüge (nächste 24 Stunden)

TLE

AlterndSource: Space-Track

Epoche: Sep 9, 2026, 18:51 UTC

1 64987U 77121CY  26252.78599720 -.00000010  00000-0  85031-4 0  9999
2 64987  65.8472 347.1722 0122985 209.3743 235.0525 13.60877924635787

Verfolge COSMOS 970 DEB in Echtzeit mit AllMySat

Download on the App Store